[[{"header":{"parameterUnit":"m.s-1","parameterCategory":2,"la1":30.2992,"la2":30.254,"lo1":-89.0895,"lo2":-89.0443,"dy":0.0025,"dx":0.0025,"nx":19,"ny":19,"refTime":"2026-05-05T21:00:00:Z","depth":"0","parameterNumber":2,"parameterNumberName":"U-component_of_CURRENTS"},"data":[0,0,0,0.1394,0.1398,0.1581,0.1581,0.1759,0.176,0,0,0,0,0,0,0,0,0,0,0,0.1327,0.1328,0.1393,0.1398,0.1581,0.1581,0.1759,0.176,0,0,0,0,0,0,0,0,0,0,0,0.1326,0.1328,0.1329,0.1399,0.1581,0.1582,0.1758,0.1634,0,0,0,0,0,0,0,0,0,0,0.1463,0.1403,0.1327,0.1329,0.14,0.158,0.1582,0.1628,0.1641,0.1661,0,0.1696,0,0.1736,0.1771,0.1772,0,0,0,0.1395,0.1392,0.1451,0.133,0.1402,0.158,0.1497,0.1636,0.1651,0.1678,0.1699,0.1706,0.1739,0.1772,0.1773,0.195,0.195,0,0,0.1385,0.1351,0.1441,0.146,0.1458,0.1492,0.1503,0.1646,0.1658,0.1699,0.1711,0.1741,0.1773,0.1775,0.1949,0.195,0,0,0,0.1358,0.1344,0.14,0.1452,0.1492,0.1497,0.151,0.1651,0.1673,0.1713,0.1744,0.1774,0.1776,0.1948,0.1949,0.196,0,0,0,0.1352,0.1329,0.1395,0.1375,0.149,0.1581,0.1512,0.1663,0.1681,0.1743,0.1774,0.1778,0.1947,0.1949,0.1958,0.197,0,0,0,0.1317,0.1325,0.135,0.1373,0.1456,0.158,0.161,0.1668,0.1699,0.1772,0.1778,0.1947,0.1949,0.1956,0.1967,0.1989,0,0,0,0.1269,0.135,0.135,0.1453,0.1454,0.1582,0.1609,0.1703,0.1766,0.1775,0.1948,0.1949,0.1956,0.1965,0.1987,0.1915,0.1917,0,0,0.1352,0.1359,0.1424,0.1429,0.1537,0.1556,0.1673,0.1758,0.1798,0.1894,0.1899,0.1959,0.1967,0.1989,0.2013,0.2012,0,0,0,0.1439,0.1472,0.151,0.157,0.1642,0.1693,0.1763,0.1812,0.1912,0.1846,0.1991,0.1997,0.2009,0.1963,0.1963,0.1813,0.1957,0.1957,0.1957,0.1488,0.1528,0.161,0.1658,0.1717,0.1793,0.1862,0.1938,0.1952,0.2003,0.2028,0.2086,0.2038,0.2037,0.1884,0.2051,0.2052,0.2052,0.2052,0.1602,0.1668,0.1663,0.1752,0.1774,0.185,0.1961,0.1991,0.2095,0.2088,0.2098,0.2006,0.2037,0.1874,0.2053,0.2053,0.2052,0.2052,0.2052,0.1644,0.1685,0.1702,0.1782,0.183,0.1889,0.198,0.2053,0.2112,0.2145,0.2081,0.208,0.1915,0.2134,0.2134,0.2135,0.2135,0.2135,0.2135,0.1706,0.1726,0.1769,0.1829,0.1847,0.1906,0.2,0.2056,0.2093,0.2104,0.2103,0.1919,0.2111,0.2083,0.2138,0.2137,0.2137,0.2137,0.2136,0.1837,0.1802,0.1875,0.1886,0.1917,0.1921,0.1994,0.2033,0.2082,0.2089,0.1877,0.2086,0.2077,0.2076,0.2048,0.209,0.209,0.209,0.209,0.1898,0.19,0.1951,0.1957,0.1961,0.1935,0.1914,0.1925,0.187,0.1771,0.1774,0.1706,0.1715,0.1681,0.1688,0.1652,0.1593,0.1592,0.1591,0.1979,0.1982,0.201,0.199,0.1963,0.1914,0.183,0.1718,0.1583,0.1558,0.158,0.1601,0.149,0.1515,0.1453,0.1476,0.1414,0,0]},{"header":{"parameterUnit":"m.s-1","parameterCategory":2,"la1":30.2992,"la2":30.254,"lo1":-89.0895,"lo2":-89.0443,"dy":0.0025,"dx":0.0025,"nx":19,"ny":19,"refTime":"2026-05-05T21:00:00:Z","depth":"0","parameterNumber":3,"parameterNumberName":"V-component_of_CURRENTS"},"data":[0,0,0,0.0172,0.0176,0.0426,0.0427,0.0813,0.0817,0,0,0,0,0,0,0,0,0,0,0,0.0088,0.0089,0.0171,0.0176,0.0425,0.0427,0.0813,0.0817,0,0,0,0,0,0,0,0,0,0,0,0.0088,0.0089,0.009,0.0177,0.0425,0.0427,0.0812,0.0615,0,0,0,0,0,0,0,0,0,0,0.0368,0.0271,0.0089,0.009,0.0178,0.0425,0.0427,0.0605,0.0627,0.0709,0,0.0731,0,0.077,0.0841,0.0842,0,0,0,0.021,0.0252,0.0311,0.0091,0.018,0.0424,0.0323,0.0617,0.0642,0.0738,0.0736,0.075,0.0776,0.0843,0.0845,0.1213,0.1215,0,0,0.0196,0.0153,0.0293,0.0326,0.0226,0.0314,0.033,0.0632,0.0656,0.0737,0.0759,0.0782,0.0846,0.0848,0.1212,0.1214,0,0,0,0.0134,0.0143,0.0195,0.0311,0.0344,0.0321,0.0339,0.0644,0.0658,0.0763,0.0787,0.0848,0.0852,0.1211,0.1213,0.1221,0,0,0,0.0127,0.0104,0.0188,0.0168,0.0337,0.0488,0.0343,0.0637,0.0672,0.0785,0.0848,0.0856,0.1209,0.1212,0.1218,0.1224,0,0,0,0.008,0.01,0.012,0.0164,0.0256,0.0483,0.0517,0.0646,0.0686,0.0842,0.0857,0.1208,0.1211,0.1215,0.122,0.1248,0,0,0,0.0041,0.0097,0.0119,0.0207,0.0253,0.0446,0.0515,0.0675,0.0805,0.085,0.1209,0.1213,0.1214,0.1217,0.1246,0.1195,0.1203,0,0,0.0094,0.0103,0.0159,0.0184,0.0339,0.0415,0.0635,0.0811,0.0886,0.1117,0.1126,0.1219,0.122,0.1248,0.1375,0.1377,0,0,0,0.0166,0.0197,0.0252,0.0345,0.0474,0.0642,0.0798,0.0889,0.1093,0.0972,0.1281,0.1283,0.1298,0.1265,0.1268,0.1279,0.1227,0.1227,0.1226,0.0167,0.0245,0.0361,0.0483,0.0611,0.082,0.0966,0.113,0.1175,0.1261,0.1334,0.1426,0.1394,0.1395,0.1409,0.1386,0.1386,0.1386,0.1386,0.0245,0.0337,0.0438,0.0571,0.0741,0.0924,0.1182,0.1238,0.1428,0.1427,0.1441,0.1333,0.1398,0.1412,0.1388,0.1388,0.1388,0.1387,0.1387,0.0251,0.0323,0.0381,0.0581,0.0781,0.0994,0.1207,0.1353,0.1443,0.1491,0.1445,0.1444,0.1414,0.1484,0.1484,0.1484,0.1484,0.1484,0.1484,0.0259,0.0336,0.0436,0.0617,0.0741,0.0949,0.1217,0.133,0.1436,0.1473,0.1472,0.1468,0.1456,0.1403,0.1487,0.1487,0.1486,0.1486,0.1486,0.0349,0.0348,0.0487,0.0587,0.0843,0.0999,0.1194,0.1358,0.1441,0.1467,0.1478,0.147,0.1461,0.1458,0.1408,0.1489,0.1489,0.1489,0.1489,0.039,0.041,0.0568,0.0708,0.0891,0.1047,0.1204,0.1347,0.1449,0.1473,0.1489,0.1454,0.1453,0.1442,0.144,0.139,0.1464,0.1464,0.1464,0.047,0.0496,0.0606,0.0724,0.092,0.1068,0.12,0.1352,0.1454,0.1468,0.1522,0.1523,0.1475,0.1473,0.1456,0.1452,0.1369,0,0]}],[{"header":{"parameterUnit":"m.s-1","parameterCategory":2,"la1":30.2992,"la2":30.254,"lo1":-89.0895,"lo2":-89.0443,"dy":0.0025,"dx":0.0025,"nx":19,"ny":19,"refTime":"2026-05-05T21:00:00:Z","depth":"2","parameterNumber":2,"parameterNumberName":"U-component_of_CURRENTS"},"data":[0,0,0,0.1386,0.139,0.1576,0.1577,0.1756,0.1757,0,0,0,0,0,0,0,0,0,0,0,0.1321,0.1322,0.1386,0.1391,0.1576,0.1577,0.1755,0.1757,0,0,0,0,0,0,0,0,0,0,0,0.132,0.1322,0.1323,0.1391,0.1576,0.1577,0.1755,0.1629,0,0,0,0,0,0,0,0,0,0,0.1456,0.1397,0.1321,0.1323,0.1393,0.1575,0.1577,0.1624,0.1637,0.1656,0,0.1692,0,0.173,0.1768,0.1768,0,0,0,0.1389,0.1386,0.1445,0.1324,0.1394,0.1575,0.1492,0.1632,0.1646,0.1673,0.1695,0.1702,0.1733,0.1769,0.177,0.1947,0.1948,0,0,0.1379,0.1345,0.1435,0.1455,0.1452,0.1486,0.1498,0.1641,0.1654,0.1695,0.1707,0.1736,0.177,0.1771,0.1947,0.1948,0,0,0,0.1351,0.1338,0.1394,0.1446,0.1486,0.1491,0.1505,0.1647,0.167,0.1709,0.1738,0.1771,0.1773,0.1946,0.1947,0.1956,0,0,0,0.1344,0.1322,0.139,0.137,0.1484,0.1576,0.1507,0.1659,0.1677,0.1738,0.1771,0.1775,0.1945,0.1947,0.1954,0.1967,0,0,0,0.131,0.1318,0.1344,0.1368,0.1451,0.1575,0.1605,0.1664,0.1695,0.1769,0.1775,0.1945,0.1946,0.1952,0.1964,0.1986,0,0,0,0.1262,0.1344,0.1344,0.1447,0.1449,0.1579,0.1605,0.1701,0.1765,0.1772,0.1945,0.1947,0.1952,0.1963,0.1984,0.1853,0.1851,0,0,0.1346,0.1353,0.1417,0.1423,0.1532,0.1552,0.1669,0.1755,0.1797,0.1891,0.1897,0.1955,0.1964,0.1985,0.1954,0.1948,0,0,0,0.1432,0.1466,0.1505,0.1566,0.1639,0.1691,0.1761,0.1808,0.1909,0.1845,0.1988,0.1995,0.2007,0.1925,0.1922,0.1955,0.1955,0.1955,0.1955,0.1479,0.1521,0.1604,0.1655,0.1715,0.1791,0.186,0.1934,0.1948,0.1999,0.2026,0.2083,0.1998,0.1994,0.2049,0.2049,0.2049,0.2049,0.2049,0.1592,0.1659,0.1657,0.1748,0.1772,0.1848,0.1957,0.1987,0.209,0.2083,0.2093,0.1969,0.1989,0.2051,0.2051,0.205,0.205,0.205,0.205,0.1635,0.1677,0.1695,0.1778,0.1828,0.1888,0.1979,0.2051,0.2108,0.2141,0.204,0.2037,0.2073,0.2131,0.2131,0.2131,0.2131,0.2131,0.2131,0.1697,0.1718,0.1763,0.1825,0.1845,0.1905,0.2,0.2054,0.2065,0.2057,0.2055,0.2111,0.2108,0.208,0.2134,0.2133,0.2133,0.2133,0.2133,0.1828,0.1795,0.187,0.1884,0.1917,0.1915,0.1992,0.2003,0.2042,0.2028,0.2011,0.2013,0.1998,0.1999,0.1969,0.1992,0.1992,0.1992,0.1992,0.189,0.1893,0.1948,0.1956,0.1962,0.1927,0.1872,0.1773,0.1784,0.168,0.1693,0.1621,0.1634,0.1596,0.1606,0.1567,0.1485,0.1484,0.1483,0.1969,0.1975,0.2006,0.199,0.1965,0.1899,0.175,0.1436,0.1246,0.1461,0.1582,0.1962,0.189,0.1897,0.1866,0.1872,0.182,0,0]},{"header":{"parameterUnit":"m.s-1","parameterCategory":2,"la1":30.2992,"la2":30.254,"lo1":-89.0895,"lo2":-89.0443,"dy":0.0025,"dx":0.0025,"nx":19,"ny":19,"refTime":"2026-05-05T21:00:00:Z","depth":"2","parameterNumber":3,"parameterNumberName":"V-component_of_CURRENTS"},"data":[0,0,0,0.0073,0.0077,0.0327,0.0329,0.0705,0.0708,0,0,0,0,0,0,0,0,0,0,0,-0.0009,-0.0008,0.0072,0.0077,0.0327,0.0329,0.0704,0.0708,0,0,0,0,0,0,0,0,0,0,0,-0.0009,-0.0008,-0.0007,0.0078,0.0327,0.0329,0.0703,0.0509,0,0,0,0,0,0,0,0,0,0,0.0263,0.017,-0.0008,-0.0007,0.0079,0.0327,0.0329,0.0499,0.0521,0.0596,0,0.0618,0,0.0657,0.0731,0.0732,0,0,0,0.0113,0.0152,0.0209,-0.0006,0.0081,0.0326,0.0225,0.0511,0.0536,0.0625,0.0624,0.0638,0.0663,0.0733,0.0735,0.1089,0.1091,0,0,0.0099,0.0058,0.0191,0.0223,0.0127,0.0216,0.0232,0.0526,0.0551,0.0625,0.0646,0.0669,0.0735,0.0738,0.1088,0.109,0,0,0,0.0035,0.0048,0.0098,0.0208,0.0241,0.0223,0.0241,0.0539,0.0552,0.065,0.0674,0.0737,0.0742,0.1087,0.1089,0.1097,0,0,0,0.0029,0.0008,0.0091,0.0072,0.0234,0.0386,0.0246,0.0532,0.0566,0.0672,0.0737,0.0745,0.1085,0.1088,0.1094,0.1107,0,0,0,-0.0017,0.0004,0.0024,0.0069,0.016,0.0381,0.0414,0.054,0.0579,0.0732,0.0746,0.1084,0.1087,0.1091,0.1102,0.1139,0,0,0,-0.0053,0.0001,0.0023,0.0108,0.0156,0.0346,0.0412,0.0571,0.0699,0.0739,0.1086,0.1089,0.109,0.1099,0.1136,0.1051,0.1058,0,0,-0.0003,0.0006,0.006,0.0086,0.0237,0.0315,0.0526,0.0701,0.0776,0.0995,0.1004,0.1095,0.1102,0.1139,0.1229,0.1229,0,0,0,0.0066,0.0095,0.015,0.0241,0.0369,0.0535,0.0687,0.0772,0.0973,0.086,0.1156,0.1162,0.1183,0.1128,0.113,0.1103,0.1103,0.1102,0.1102,0.0062,0.0139,0.0253,0.0374,0.0501,0.0705,0.0848,0.1004,0.1049,0.1133,0.1212,0.131,0.1254,0.1254,0.1259,0.126,0.126,0.126,0.126,0.0133,0.0223,0.0325,0.0458,0.0627,0.0806,0.1054,0.1109,0.13,0.1297,0.1316,0.1196,0.1255,0.1262,0.1261,0.1261,0.1261,0.1261,0.1261,0.0139,0.021,0.027,0.0468,0.0667,0.0877,0.1087,0.1232,0.1322,0.1376,0.1317,0.1315,0.1284,0.1378,0.1378,0.1378,0.1378,0.1378,0.1379,0.0146,0.0222,0.0326,0.0506,0.0632,0.0841,0.1109,0.1222,0.132,0.1347,0.1346,0.135,0.1346,0.1295,0.1382,0.1382,0.1381,0.1381,0.1381,0.023,0.0236,0.0379,0.0483,0.074,0.0882,0.1088,0.1243,0.1328,0.1345,0.1335,0.1335,0.1325,0.1323,0.1274,0.1351,0.1351,0.1351,0.1351,0.0271,0.0293,0.0463,0.0609,0.0792,0.0929,0.1069,0.1165,0.124,0.1218,0.1224,0.1161,0.1165,0.1144,0.1145,0.1091,0.1121,0.1121,0.1121,0.0345,0.0379,0.0498,0.0628,0.0825,0.094,0.1032,0.1048,0.102,0.1113,0.1193,0.1334,0.1255,0.1256,0.1232,0.1231,0.1147,0,0]}],[{"header":{"parameterUnit":"m.s-1","parameterCategory":2,"la1":30.2992,"la2":30.254,"lo1":-89.0895,"lo2":-89.0443,"dy":0.0025,"dx":0.0025,"nx":19,"ny":19,"refTime":"2026-05-05T21:00:00:Z","depth":"4","parameterNumber":2,"parameterNumberName":"U-component_of_CURRENTS"},"data":[0,0,0,-0.038,-0.038,-0.028,-0.0279,0.0076,0.0079,0,0,0,0,0,0,0,0,0,0,0,-0.0411,-0.0411,-0.038,-0.038,-0.028,-0.0279,0.0076,0.0079,0,0,0,0,0,0,0,0,0,0,0,-0.041,-0.0411,-0.0412,-0.038,-0.0281,-0.0279,0.0075,-0.0041,0,0,0,0,0,0,0,0,0,0,-0.016,-0.0193,-0.0411,-0.0412,-0.038,-0.0281,-0.0279,-0.0048,-0.0034,0.0075,0,0.004,0,0.0041,0.0102,0.0103,0,0,0,-0.0314,-0.0206,-0.0244,-0.0412,-0.038,-0.0281,-0.0307,-0.0041,-0.0025,0.0095,0.0044,0.0056,0.0047,0.0104,0.0106,0.0306,0.0306,0,0,-0.0319,-0.0306,-0.0258,-0.0236,-0.0415,-0.031,-0.0305,-0.0033,0.0004,0.0045,0.0063,0.0053,0.0107,0.0109,0.0307,0.0306,0,0,0,-0.038,-0.031,-0.0356,-0.0249,-0.0264,-0.0309,-0.0302,-0.0007,-0.0044,0.0067,0.0057,0.0108,0.0113,0.0307,0.0307,0.0301,0,0,0,-0.038,-0.0352,-0.036,-0.0338,-0.0273,-0.0153,-0.0281,-0.0062,-0.0033,0.0055,0.0109,0.0116,0.0308,0.0307,0.0302,0.036,0,0,0,-0.0404,-0.035,-0.0376,-0.034,-0.0336,-0.016,-0.0175,-0.0056,-0.004,0.0104,0.0117,0.0308,0.0307,0.0303,0.0359,0.0323,0,0,0,-0.0342,-0.0395,-0.0375,-0.0401,-0.0339,-0.0306,-0.0177,-0.0077,0.0034,0.011,0.0308,0.0307,0.0303,0.0358,0.0323,0.029,0,0,0,-0.0387,-0.0398,-0.0416,-0.04,-0.0408,-0.0311,-0.0208,-0.0008,0.0062,0.0248,0.0252,0.0302,0.0359,0.0323,0.0239,0,0,0,0,-0.0414,-0.0424,-0.0426,-0.0411,-0.0389,-0.0246,-0.0106,-0.0028,0.0138,0.0107,0.0286,0.0323,0.03,0.028,0.0303,0.0303,0.0303,0.0303,0.0303,-0.0445,-0.0433,-0.041,-0.0372,-0.0315,-0.0175,-0.0057,0.0085,0.0132,0.0178,0.0304,0.0264,0.024,0.0256,0.0256,0.0256,0.0255,0.0255,0.0255,-0.0454,-0.041,-0.0335,-0.0291,-0.0173,-0.0042,0.0107,0.0154,0.0266,0.0292,0.0265,0.0259,0.0255,0.0255,0.0255,0.0255,0.0255,0.0255,0.0255,-0.0409,-0.038,-0.0331,-0.0207,-0.0042,0.0092,0.0195,0.0281,0.0308,0.0316,0.0248,0.0266,0.0282,0.0266,0.0266,0.0266,0.0266,0.0266,0.0266,-0.0374,-0.0333,-0.0258,-0.0112,-0.0011,0.0131,0.0254,0.0252,0.0274,0.0281,0.031,0.0268,0.0268,0.0283,0.0267,0.0267,0.0267,0.0266,0.0266,-0.0344,-0.032,-0.0223,-0.0141,0.0025,0.01,0.0194,0.021,0.0188,0.0172,0.0236,0.0237,0.0243,0.0243,0.0258,0.0234,0.0234,0.0233,0,-0.0333,-0.0313,-0.0227,-0.0152,-0.0058,0.005,0.0045,0.0058,0.011,0.0144,0.0111,0.018,0.0182,0.0182,0.0183,0.0195,0,0,0,-0.0338,-0.0303,-0.0262,-0.0189,-0.0104,-0.0028,0.0041,0.005,0.0167,0.0115,0.0222,0.0225,0.0133,0.027,0.0282,0.0282,0.0307,0,0]},{"header":{"parameterUnit":"m.s-1","parameterCategory":2,"la1":30.2992,"la2":30.254,"lo1":-89.0895,"lo2":-89.0443,"dy":0.0025,"dx":0.0025,"nx":19,"ny":19,"refTime":"2026-05-05T21:00:00:Z","depth":"4","parameterNumber":3,"parameterNumberName":"V-component_of_CURRENTS"},"data":[0,0,0,-0.0136,-0.0138,-0.0242,-0.0243,-0.0276,-0.0277,0,0,0,0,0,0,0,0,0,0,0,-0.0082,-0.0082,-0.0136,-0.0138,-0.0242,-0.0243,-0.0276,-0.0277,0,0,0,0,0,0,0,0,0,0,0,-0.0081,-0.0082,-0.0082,-0.0139,-0.0242,-0.0243,-0.0276,-0.0222,0,0,0,0,0,0,0,0,0,0,-0.0133,-0.0147,-0.0082,-0.0082,-0.0139,-0.0242,-0.0243,-0.022,-0.0225,-0.0202,0,-0.0211,0,-0.0252,-0.0277,-0.0277,0,0,0,-0.0135,-0.0144,-0.0126,-0.0082,-0.014,-0.0242,-0.0194,-0.0224,-0.0229,-0.0208,-0.0212,-0.0215,-0.0253,-0.0277,-0.0277,-0.0227,-0.0226,0,0,-0.0129,-0.0146,-0.0122,-0.0129,-0.0157,-0.0191,-0.0198,-0.0228,-0.0254,-0.0213,-0.0217,-0.0253,-0.0277,-0.0277,-0.0227,-0.0227,0,0,0,-0.0115,-0.0142,-0.0126,-0.0126,-0.0157,-0.0194,-0.0202,-0.0253,-0.0235,-0.0218,-0.0254,-0.0277,-0.0277,-0.0228,-0.0227,-0.0189,0,0,0,-0.0111,-0.0133,-0.0123,-0.0141,-0.0157,-0.0235,-0.0227,-0.0232,-0.0238,-0.0254,-0.0277,-0.0277,-0.0229,-0.0227,-0.0192,-0.0122,0,0,0,-0.0079,-0.0133,-0.013,-0.014,-0.0185,-0.0235,-0.0222,-0.0235,-0.0259,-0.0277,-0.0277,-0.0229,-0.0228,-0.0194,-0.0127,-0.0036,0,0,0,-0.0111,-0.0073,-0.0131,-0.0096,-0.0183,-0.0142,-0.0222,-0.0227,-0.0233,-0.0277,-0.0228,-0.0227,-0.0195,-0.0131,-0.0041,-0.0139,0,0,0,-0.0057,-0.0069,-0.0034,-0.0085,-0.0014,-0.0129,-0.0107,-0.0165,-0.0205,-0.0212,-0.0212,-0.0191,-0.0128,-0.0037,-0.0057,0,0,0,0,-0.0009,0.0015,0.0031,0.0038,0.004,-0.0008,-0.0083,-0.0118,-0.0161,-0.0207,-0.0173,-0.0132,-0.0077,-0.0148,-0.022,-0.022,-0.0221,-0.0221,-0.0221,0.0059,0.0081,0.0134,0.0149,0.0149,0.0074,0.0046,-0.0022,-0.0081,-0.0097,-0.0092,0.0025,-0.005,-0.0107,-0.0107,-0.0107,-0.0107,-0.0107,-0.0107,0.0162,0.0198,0.0192,0.0252,0.0215,0.0203,0.0129,0.0064,0.0067,-0.0022,0.0028,-0.0091,-0.0102,-0.0103,-0.0104,-0.0104,-0.0105,-0.0105,-0.0105,0.0219,0.0233,0.0265,0.0315,0.0309,0.0245,0.0222,0.0189,0.0141,0.0171,0.0119,0.0093,0.0081,0.0189,0.019,0.0191,0.0191,0.0192,0.0192,0.0249,0.0285,0.0342,0.0373,0.0383,0.0343,0.0294,0.0252,0.0233,0.0211,0.0207,0.0127,0.0117,0.0101,0.0203,0.0201,0.02,0.0199,0.0198,0.0296,0.0333,0.042,0.0457,0.0443,0.0372,0.0366,0.0273,0.0292,0.0273,0.0235,0.023,0.023,0.0219,0.0205,0.0343,0.0342,0.0341,0,0.0322,0.0347,0.0475,0.0532,0.046,0.039,0.0286,0.0213,0.0229,0.0271,0.0252,0.021,0.0205,0.0199,0.0188,0.0169,0,0,0,0.033,0.039,0.0474,0.0555,0.0456,0.03,0.022,0.0188,0.0317,0.0189,0.0321,0.0326,0.0073,0.0235,0.0226,0.0214,0.0189,0,0]}]]